| time (UTC) | temp F | wind direction | speed MPH | gust MPH | rain 1hr in | rain 24hr in | rain mn in | humidity % | barometer mb |
| 20260504174008 | 81 | 190 | 8.0 | 18.0 | 0.00 | 0.00 | 0.00 | 57 | 1016.4 |
| 20260504173509 | 81 | 163 | 9.0 | 18.0 | 0.00 | 0.00 | 0.00 | 56 | 1016.4 |
| 20260504173024 | 81 | 183 | 6.0 | 14.0 | 0.00 | 0.00 | 0.00 | 57 | 1016.6 |
| 20260504172503 | 81 | 205 | 7.0 | 17.0 | 0.00 | 0.00 | 0.00 | 57 | 1016.6 |
| 20260504172003 | 81 | 202 | 7.0 | 17.0 | 0.00 | 0.00 | 0.00 | 58 | 1016.6 |
| 20260504171510 | 81 | 198 | 7.0 | 16.0 | 0.00 | 0.00 | 0.00 | 56 | 1016.7 |
| 20260504171006 | 81 | 202 | 9.0 | 16.0 | 0.00 | 0.00 | 0.00 | 56 | 1016.9 |
| 20260504170504 | 81 | 178 | 8.0 | 15.0 | 0.00 | 0.00 | 0.00 | 56 | 1017.0 |
| 20260504151010 | 78 | 223 | 7.0 | 18.0 | 0.00 | 0.00 | 0.00 | 58 | 1017.4 |
| 20260504150511 | 78 | 202 | 6.0 | 18.0 | 0.00 | 0.00 | 0.00 | 58 | 1017.3 |
| 20260504141006 | 77 | 182 | 5.0 | 13.0 | 0.00 | 0.00 | 0.00 | 60 | 1017.1 |
| 20260504140503 | 77 | 188 | 9.0 | 13.0 | 0.00 | 0.00 | 0.00 | 60 | 1017.2 |
| 20260504130506 | 74 | 182 | 7.0 | 13.0 | 0.00 | 0.00 | 0.00 | 65 | 1017.0 |
| 20260504110506 | 70 | 207 | 4.0 | 10.0 | 0.00 | 0.00 | 0.00 | 55 | 1016.5 |
| 20260504100505 | 71 | 130 | 4.0 | 10.0 | 0.00 | 0.00 | 0.00 | 54 | 1016.9 |
| 20260504082007 | 71 | 158 | 3.0 | 10.0 | 0.00 | 0.00 | 0.00 | 54 | 1017.5 |
| 20260504081508 | 71 | 157 | 5.0 | 10.0 | 0.00 | 0.00 | 0.00 | 55 | 1017.3 |
| 20260504081006 | 71 | 138 | 5.0 | 12.0 | 0.00 | 0.00 | 0.00 | 54 | 1017.3 |
| 20260504080505 | 71 | 170 | 3.0 | 12.0 | 0.00 | 0.00 | 0.00 | 54 | 1017.5 |
| 20260504050503 | 71 | 157 | 5.0 | 11.0 | 0.00 | 0.00 | 0.00 | 53 | 1019.3 |
| 20260504050007 | 71 | 167 | 3.0 | 9.0 | 0.00 | 0.00 | 0.00 | 52 | 1019.5 |
| 20260504045503 | 71 | 208 | 4.0 | 9.0 | 0.00 | 0.00 | 0.00 | 52 | 1019.5 |
| 20260504045006 | 71 | 171 | 3.0 | 9.0 | 0.00 | 0.00 | 0.00 | 53 | 1019.6 |
| 20260504044510 | 71 | 140 | 4.0 | 9.0 | 0.00 | 0.00 | 0.00 | 52 | 1019.7 |
| 20260504044007 | 71 | 134 | 3.0 | 8.0 | 0.00 | 0.00 | 0.00 | 53 | 1019.6 |
| 20260504043504 | 71 | 144 | 3.0 | 9.0 | 0.00 | 0.00 | 0.00 | 52 | 1019.5 |
| 20260504043013 | 71 | 138 | 3.0 | 9.0 | 0.00 | 0.00 | 0.00 | 52 | 1019.6 |
| 20260504042508 | 71 | 172 | 4.0 | 9.0 | 0.00 | 0.00 | 0.00 | 52 | 1019.4 |
| 20260504042007 | 71 | 132 | 3.0 | 10.0 | 0.00 | 0.00 | 0.00 | 51 | 1019.3 |
| 20260504041518 | 71 | 171 | 4.0 | 10.0 | 0.00 | 0.00 | 0.00 | 52 | 1019.5 |
| 20260504041007 | 71 | 167 | 4.0 | 9.0 | 0.00 | 0.00 | 0.00 | 52 | 1019.5 |
| 20260504040502 | 71 | 148 | 2.0 | 9.0 | 0.00 | 0.00 | 0.00 | 52 | 1019.5 |
| 20260504040011 | 71 | 178 | 4.0 | 9.0 | 0.00 | 0.00 | 0.00 | 52 | 1019.6 |
| 20260504035506 | 71 | 136 | 4.0 | 8.0 | 0.00 | 0.00 | 0.00 | 51 | 1019.6 |
| 20260504035008 | 71 | 170 | 3.0 | 8.0 | 0.00 | 0.00 | 0.00 | 52 | 1019.5 |
| 20260504034508 | 71 | 144 | 3.0 | 8.0 | 0.00 | 0.00 | 0.00 | 51 | 1019.5 |
| 20260504034004 | 71 | 111 | 3.0 | 8.0 | 0.00 | 0.00 | 0.00 | 51 | 1019.5 |
| 20260504033504 | 71 | 158 | 3.0 | 8.0 | 0.00 | 0.00 | 0.00 | 50 | 1019.5 |
| 20260504033010 | 71 | 145 | 2.0 | 8.0 | 0.00 | 0.00 | 0.00 | 51 | 1019.5 |
| 20260504032504 | 71 | 164 | 3.0 | 8.0 | 0.00 | 0.00 | 0.00 | 51 | 1019.4 |
| 20260504032003 | 71 | 134 | 2.0 | 7.0 | 0.00 | 0.00 | 0.00 | 50 | 1019.4 |
| 20260504031516 | 71 | 136 | 2.0 | 7.0 | 0.00 | 0.00 | 0.00 | 51 | 1019.4 |
| 20260504031006 | 71 | 151 | 3.0 | 7.0 | 0.00 | 0.00 | 0.00 | 49 | 1019.4 |
| 20260504030506 | 71 | 160 | 2.0 | 7.0 | 0.00 | 0.00 | 0.00 | 51 | 1019.5 |
| 20260504030020 | 71 | 150 | 2.0 | 7.0 | 0.00 | 0.00 | 0.00 | 51 | 1019.5 |
| 20260504025508 | 71 | 136 | 3.0 | 7.0 | 0.00 | 0.00 | 0.00 | 51 | 1019.5 |
| 20260504025006 | 71 | 128 | 2.0 | 8.0 | 0.00 | 0.00 | 0.00 | 50 | 1019.5 |
| 20260504024504 | 71 | 136 | 4.0 | 8.0 | 0.00 | 0.00 | 0.00 | 50 | 1019.5 |
| 20260504024004 | 71 | 108 | 3.0 | 7.0 | 0.00 | 0.00 | 0.00 | 49 | 1019.5 |
| 20260504023502 | 71 | 168 | 2.0 | 7.0 | 0.00 | 0.00 | 0.00 | 50 | 1019.4 |
| 20260504023010 | 71 | 143 | 2.0 | 7.0 | 0.00 | 0.00 | 0.00 | 49 | 1019.4 |
| 20260504022504 | 71 | 159 | 4.0 | 7.0 | 0.00 | 0.00 | 0.00 | 49 | 1019.3 |
| 20260504022004 | 71 | 146 | 2.0 | 6.0 | 0.00 | 0.00 | 0.00 | 50 | 1019.3 |
| 20260504021511 | 71 | 117 | 1.0 | 9.0 | 0.00 | 0.00 | 0.00 | 50 | 1019.4 |
| 20260504021003 | 71 | 188 | 2.0 | 10.0 | 0.00 | 0.00 | 0.00 | 49 | 1019.4 |
| 20260504020503 | 71 | 181 | 5.0 | 10.0 | 0.00 | 0.00 | 0.00 | 49 | 1019.4 |
| 20260504020016 | 71 | 157 | 4.0 | 8.0 | 0.00 | 0.00 | 0.00 | 49 | 1019.4 |
| 20260504015506 | 72 | 182 | 4.0 | 8.0 | 0.00 | 0.00 | 0.00 | 49 | 1019.4 |
| 20260504015009 | 72 | 182 | 4.0 | 7.0 | 0.00 | 0.00 | 0.00 | 50 | 1019.6 |
| 20260504014526 | 72 | 150 | 3.0 | 7.0 | 0.00 | 0.00 | 0.00 | 49 | 1019.6 |
| 20260504014005 | 72 | 171 | 3.0 | 6.0 | 0.00 | 0.00 | 0.00 | 49 | 1019.5 |
| 20260504013502 | 72 | 171 | 3.0 | 8.0 | 0.00 | 0.00 | 0.00 | 48 | 1019.3 |
| 20260504013005 | 72 | 167 | 3.0 | 9.0 | 0.00 | 0.00 | 0.00 | 48 | 1019.4 |
| 20260504012505 | 72 | 209 | 3.0 | 9.0 | 0.00 | 0.00 | 0.00 | 49 | 1019.4 |
| 20260504012003 | 72 | 148 | 4.0 | 7.0 | 0.00 | 0.00 | 0.00 | 48 | 1019.4 |
| 20260504011510 | 72 | 192 | 3.0 | 7.0 | 0.00 | 0.00 | 0.00 | 47 | 1019.5 |
| 20260504011004 | 72 | 177 | 3.0 | 7.0 | 0.00 | 0.00 | 0.00 | 47 | 1019.3 |
| 20260504010504 | 72 | 163 | 2.0 | 8.0 | 0.00 | 0.00 | 0.00 | 48 | 1019.4 |
| 20260504010015 | 72 | 211 | 3.0 | 8.0 | 0.00 | 0.00 | 0.00 | 47 | 1019.3 |
| 20260504005505 | 72 | 139 | 2.0 | 7.0 | 0.00 | 0.00 | 0.00 | 47 | 1019.3 |
| 20260504005006 | 73 | 178 | 3.0 | 7.0 | 0.00 | 0.00 | 0.00 | 49 | 1019.4 |
| 20260504004526 | 73 | 174 | 1.0 | 7.0 | 0.00 | 0.00 | 0.00 | 48 | 1019.4 |
| 20260504004006 | 73 | 169 | 3.0 | 8.0 | 0.00 | 0.00 | 0.00 | 46 | 1019.3 |
| 20260504003508 | 73 | 131 | 2.0 | 8.0 | 0.00 | 0.00 | 0.00 | 45 | 1019.3 |
| 20260504003023 | 74 | 115 | 1.0 | 8.0 | 0.00 | 0.00 | 0.00 | 46 | 1019.3 |
| 20260504002507 | 74 | 188 | 2.0 | 8.0 | 0.00 | 0.00 | 0.00 | 47 | 1019.3 |
| 20260504002010 | 74 | 172 | 3.0 | 9.0 | 0.00 | 0.00 | 0.00 | 45 | 1019.4 |
| 20260504001507 | 75 | 178 | 3.0 | 9.0 | 0.00 | 0.00 | 0.00 | 44 | 1019.4 |
| 20260504001003 | 75 | 202 | 4.0 | 9.0 | 0.00 | 0.00 | 0.00 | 43 | 1019.4 |
| 20260504000502 | 75 | 178 | 4.0 | 9.0 | 0.00 | 0.00 | 0.00 | 44 | 1019.3 |
| 20260504000012 | 76 | 178 | 3.0 | 8.0 | 0.00 | 0.00 | 0.00 | 44 | 1019.5 |
| 20260503235504 | 76 | 130 | 2.0 | 8.0 | 0.00 | 0.00 | 0.00 | 43 | 1019.6 |
| 20260503235006 | 76 | 171 | 1.0 | 7.0 | 0.00 | 0.00 | 0.00 | 42 | 1019.7 |
| 20260503234518 | 77 | 164 | 2.0 | 7.0 | 0.00 | 0.00 | 0.00 | 42 | 1019.7 |
| 20260503234006 | 77 | 169 | 3.0 | 9.0 | 0.00 | 0.00 | 0.00 | 41 | 1019.6 |
| 20260503233508 | 77 | 192 | 4.0 | 9.0 | 0.00 | 0.00 | 0.00 | 42 | 1019.7 |
| 20260503233021 | 77 | 159 | 1.0 | 8.0 | 0.00 | 0.00 | 0.00 | 41 | 1019.6 |
| 20260503232508 | 77 | 159 | 2.0 | 9.0 | 0.00 | 0.00 | 0.00 | 41 | 1019.7 |
| 20260503232007 | 77 | 160 | 4.0 | 9.0 | 0.00 | 0.00 | 0.00 | 41 | 1019.8 |
| 20260503231524 | 77 | 184 | 4.0 | 9.0 | 0.00 | 0.00 | 0.00 | 42 | 1019.9 |
| 20260503231007 | 77 | 184 | 3.0 | 10.0 | 0.00 | 0.00 | 0.00 | 43 | 1020.0 |
| 20260503230508 | 77 | 128 | 4.0 | 10.0 | 0.00 | 0.00 | 0.00 | 42 | 1020.0 |
| 20260503230009 | 77 | 148 | 4.0 | 9.0 | 0.00 | 0.00 | 0.00 | 41 | 1019.9 |
| 20260503225503 | 78 | 203 | 4.0 | 9.0 | 0.00 | 0.00 | 0.00 | 41 | 1020.1 |
| 20260503225007 | 78 | 136 | 3.0 | 10.0 | 0.00 | 0.00 | 0.00 | 41 | 1020.2 |
| 20260503224514 | 78 | 181 | 4.0 | 10.0 | 0.00 | 0.00 | 0.00 | 41 | 1020.3 |
| 20260503224004 | 78 | 196 | 4.0 | 11.0 | 0.00 | 0.00 | 0.00 | 41 | 1020.3 |
| 20260503223509 | 78 | 188 | 5.0 | 11.0 | 0.00 | 0.00 | 0.00 | 40 | 1020.4 |
| 20260503223019 | 78 | 178 | 5.0 | 9.0 | 0.00 | 0.00 | 0.00 | 39 | 1020.2 |
| 20260503222507 | 78 | 202 | 5.0 | 10.0 | 0.00 | 0.00 | 0.00 | 40 | 1020.3 |
| 20260503222009 | 78 | 138 | 3.0 | 10.0 | 0.00 | 0.00 | 0.00 | 40 | 1020.2 |
| 20260503221523 | 78 | 170 | 5.0 | 11.0 | 0.00 | 0.00 | 0.00 | 40 | 1020.2 |
| 20260503221009 | 78 | 115 | 3.0 | 11.0 | 0.00 | 0.00 | 0.00 | 41 | 1020.3 |
| 20260503220507 | 79 | 158 | 5.0 | 11.0 | 0.00 | 0.00 | 0.00 | 40 | 1020.4 |
| 20260503220026 | 78 | 169 | 4.0 | 10.0 | 0.00 | 0.00 | 0.00 | 41 | 1020.5 |
| 20260503215508 | 78 | 139 | 3.0 | 10.0 | 0.00 | 0.00 | 0.00 | 40 | 1020.5 |
| 20260503215010 | 78 | 184 | 6.0 | 10.0 | 0.00 | 0.00 | 0.00 | 41 | 1020.6 |
| 20260503214511 | 78 | 133 | 4.0 | 10.0 | 0.00 | 0.00 | 0.00 | 42 | 1020.5 |
| 20260503214003 | 78 | 188 | 6.0 | 10.0 | 0.00 | 0.00 | 0.00 | 42 | 1020.6 |
| 20260503213511 | 78 | 121 | 6.0 | 12.0 | 0.00 | 0.00 | 0.00 | 42 | 1020.6 |
| 20260503213019 | 78 | 175 | 6.0 | 12.0 | 0.00 | 0.00 | 0.00 | 41 | 1020.6 |
| 20260503212508 | 79 | 159 | 4.0 | 11.0 | 0.00 | 0.00 | 0.00 | 39 | 1020.8 |
| 20260503212008 | 79 | 157 | 3.0 | 10.0 | 0.00 | 0.00 | 0.00 | 39 | 1020.9 |
| 20260503211521 | 79 | 125 | 4.0 | 10.0 | 0.00 | 0.00 | 0.00 | 40 | 1020.9 |
| 20260503211011 | 79 | 199 | 5.0 | 10.0 | 0.00 | 0.00 | 0.00 | 39 | 1021.0 |
| 20260503210507 | 79 | 184 | 5.0 | 11.0 | 0.00 | 0.00 | 0.00 | 40 | 1021.0 |
| 20260503210025 | 79 | 152 | 5.0 | 11.0 | 0.00 | 0.00 | 0.00 | 39 | 1021.1 |
| 20260503205510 | 80 | 171 | 4.0 | 9.0 | 0.00 | 0.00 | 0.00 | 39 | 1021.1 |
| 20260503205007 | 79 | 185 | 4.0 | 10.0 | 0.00 | 0.00 | 0.00 | 39 | 1021.2 |
| 20260503204505 | 78 | 207 | 5.0 | 10.0 | 0.00 | 0.00 | 0.00 | 39 | 1021.2 |
| 20260503204004 | 78 | 165 | 5.0 | 10.0 | 0.00 | 0.00 | 0.00 | 39 | 1021.3 |
| 20260503203503 | 78 | 133 | 5.0 | 10.0 | 0.00 | 0.00 | 0.00 | 41 | 1021.5 |
| 20260503203005 | 78 | 122 | 5.0 | 10.0 | 0.00 | 0.00 | 0.00 | 40 | 1021.7 |
| 20260503202503 | 78 | 131 | 5.0 | 11.0 | 0.00 | 0.00 | 0.00 | 40 | 1021.7 |
| 20260503202003 | 78 | 115 | 7.0 | 11.0 | 0.00 | 0.00 | 0.00 | 39 | 1021.7 |
| 20260503201503 | 78 | 142 | 4.0 | 11.0 | 0.00 | 0.00 | 0.00 | 41 | 1021.9 |
| 20260503201003 | 78 | 171 | 3.0 | 12.0 | 0.00 | 0.00 | 0.00 | 41 | 1021.9 |
| 20260503200503 | 78 | 150 | 5.0 | 12.0 | 0.00 | 0.00 | 0.00 | 39 | 1022.0 |
| 20260503200008 | 77 | 165 | 5.0 | 11.0 | 0.00 | 0.00 | 0.00 | 38 | 1022.0 |
| 20260503195502 | 78 | 109 | 6.0 | 12.0 | 0.00 | 0.00 | 0.00 | 39 | 1022.0 |
| 20260503195002 | 78 | 152 | 8.0 | 12.0 | 0.00 | 0.00 | 0.00 | 36 | 1022.0 |
| 20260503194505 | 78 | 121 | 5.0 | 10.0 | 0.00 | 0.00 | 0.00 | 38 | 1022.1 |
| 20260503194003 | 78 | 124 | 6.0 | 10.0 | 0.00 | 0.00 | 0.00 | 37 | 1022.3 |
| 20260503193503 | 78 | 171 | 5.0 | 13.0 | 0.00 | 0.00 | 0.00 | 39 | 1022.3 |
| 20260503193006 | 77 | 146 | 6.0 | 14.0 | 0.00 | 0.00 | 0.00 | 39 | 1022.4 |
| 20260503192502 | 78 | 144 | 6.0 | 13.0 | 0.00 | 0.00 | 0.00 | 39 | 1022.5 |
| 20260503192005 | 78 | 142 | 6.0 | 12.0 | 0.00 | 0.00 | 0.00 | 39 | 1022.5 |
| 20260503191503 | 78 | 166 | 4.0 | 12.0 | 0.00 | 0.00 | 0.00 | 39 | 1022.5 |
| 20260503191003 | 79 | 139 | 6.0 | 12.0 | 0.00 | 0.00 | 0.00 | 40 | 1022.7 |
| 20260503190503 | 79 | 166 | 5.0 | 11.0 | 0.00 | 0.00 | 0.00 | 38 | 1022.9 |
| 20260503190008 | 78 | 172 | 4.0 | 11.0 | 0.00 | 0.00 | 0.00 | 38 | 1022.9 |
| 20260503185503 | 78 | 183 | 5.0 | 11.0 | 0.00 | 0.00 | 0.00 | 39 | 1022.9 |
| 20260503185002 | 78 | 128 | 4.0 | 10.0 | 0.00 | 0.00 | 0.00 | 40 | 1022.9 |
| 20260503184506 | 78 | 94 | 6.0 | 10.0 | 0.00 | 0.00 | 0.00 | 39 | 1023.0 |
| 20260503184006 | 78 | 65 | 5.0 | 11.0 | 0.00 | 0.00 | 0.00 | 39 | 1023.1 |
| 20260503183502 | 77 | 119 | 4.0 | 13.0 | 0.00 | 0.00 | 0.00 | 38 | 1023.2 |
| 20260503183004 | 78 | 186 | 5.0 | 13.0 | 0.00 | 0.00 | 0.00 | 37 | 1023.2 |
| 20260503182503 | 77 | 107 | 5.0 | 11.0 | 0.00 | 0.00 | 0.00 | 38 | 1023.3 |
| 20260503182002 | 78 | 103 | 6.0 | 11.0 | 0.00 | 0.00 | 0.00 | 37 | 1023.3 |
| 20260503181505 | 78 | 120 | 5.0 | 11.0 | 0.00 | 0.00 | 0.00 | 38 | 1023.3 |
| 20260503181004 | 78 | 128 | 5.0 | 12.0 | 0.00 | 0.00 | 0.00 | 38 | 1023.3 |
| 20260503180504 | 77 | 138 | 5.0 | 12.0 | 0.00 | 0.00 | 0.00 | 39 | 1023.4 |
| 20260503180009 | 77 | 55 | 4.0 | 10.0 | 0.00 | 0.00 | 0.00 | 40 | 1023.4 |
| 20260503175504 | 77 | 103 | 5.0 | 11.0 | 0.00 | 0.00 | 0.00 | 38 | 1023.5 |
| 20260503175003 | 78 | 108 | 5.0 | 11.0 | 0.00 | 0.00 | 0.00 | 38 | 1023.6 |